Flag for Norway Weather past 2 weeks in Stavanger, Norway

43 °F

Scattered showers. Passing clouds.

Feels Like: 33 °F
Forecast: 42 / 46 °F
Wind: 23 mph from West

Location: Stavanger / Sola

Current Time: Nov 30, 2015 at 2:08:53 AM

Latest Report: Nov 30, 2015 at 12:50 AM

Visibility: N/A

Pressure: 29.00 "Hg

Humidity: 81%

Dew point: 37 °F

Location of StavangerLocation

Historic Weather in Stavanger — Graph


Stavanger temperature yesterday

Maximum temperature yesterday: 45 °F (at 1:50 AM)
Minimum temperature yesterday: 39 °F (at 8:50 PM)
Average temperature yesterday: 43 °F

Past Weeks' High & Low Weather Summary

High52 °F (Nov 16, 10:50 AM)100% (Nov 15, 6:20 PM)30.04 "Hg (Nov 15, 6:20 PM)
Low23 °F (Nov 22, 6:50 AM)52% (Nov 22, 2:20 PM)28.91 "Hg (Nov 29, 4:50 PM)
Average42 °F83%29.47 "Hg
* Reported Nov 15 12:50 AM — Nov 30 12:20 AM, Stavanger, Weather by CustomWeather, © 2015

Note: Actual official high and low records may vary slightly from our data, if they occured in-between our weather recording intervals... More about our weather records


Stavanger weather history for previous 24 hours

Time TempWeatherWind HumidityBarometerVisibility
12:20 AM
Mon, Nov 30
43 °FScattered showers. Passing clouds.23 mph71%28.97 "HgN/A
11:50 PM
Sun, Nov 29
41 °FRain showers. Partly cloudy.28 mph81%28.97 "Hg6 mi
11:20 PM39 °FRain showers. Partly cloudy.28 mph87%28.97 "Hg6 mi
10:50 PM45 °FRain showers. Partly cloudy.26 mph71%28.97 "HgN/A
10:20 PM43 °FPassing clouds.22 mph76%28.97 "HgN/A
9:50 PM41 °FPassing clouds.22 mph76%28.97 "HgN/A
9:20 PM41 °FScattered showers. Passing clouds.20 mph70%28.97 "HgN/A
8:50 PM39 °FScattered showers. Partly cloudy.24 mph75%28.97 "HgN/A
8:20 PM45 °FScattered showers. Passing clouds.22 mph61%28.97 "HgN/A
7:50 PM43 °FPassing clouds.17 mph66%28.94 "HgN/A
7:20 PM41 °FScattered showers. Partly cloudy.24 mph76%28.94 "HgN/A
6:50 PM45 °FSprinkles. Passing clouds.16 mph61%28.94 "HgN/A
6:20 PM45 °FPassing clouds.12 mph61%28.91 "HgN/A
5:50 PM45 °FPassing clouds.9 mph57%28.94 "HgN/A
5:20 PM45 °FPartly cloudy.10 mph61%28.94 "HgN/A
4:50 PM45 °FPartly cloudy.7 mph57%28.91 "HgN/A
4:20 PM45 °FPartly cloudy.9 mph57%28.94 "HgN/A
3:50 PM45 °FPartly sunny.12 mph57%28.94 "HgN/A
3:20 PM45 °FScattered showers. Broken clouds.16 mph61%28.97 "HgN/A
2:50 PM45 °FScattered showers. Broken clouds.17 mph61%28.97 "HgN/A
2:20 PM45 °FScattered showers. Broken clouds.17 mph61%29.00 "HgN/A
1:50 PM45 °FScattered showers. Broken clouds.20 mph61%29.00 "HgN/A
1:20 PM45 °FSprinkles. Scattered clouds.22 mph66%29.03 "HgN/A
12:50 PM45 °FScattered clouds.20 mph61%29.03 "HgN/A
12:20 PM45 °FScattered showers. Scattered clouds.17 mph66%29.03 "HgN/A
11:50 AM45 °FScattered showers. Scattered clouds.22 mph61%29.03 "HgN/A
11:20 AM43 °FScattered clouds.17 mph71%29.03 "HgN/A
10:50 AM43 °FScattered showers. Broken clouds.24 mph66%29.03 "HgN/A
10:20 AM43 °FScattered showers. Scattered clouds.18 mph71%29.06 "HgN/A
9:50 AM41 °FScattered showers. Scattered clouds.18 mph81%29.03 "HgN/A
9:20 AM43 °FScattered showers. Broken clouds.28 mph76%29.03 "HgN/A
8:50 AM45 °FSprinkles. Passing clouds.23 mph66%29.03 "HgN/A
7:50 AM43 °FScattered showers. Passing clouds.15 mph76%29.03 "HgN/A
7:20 AM45 °FRain showers. Partly cloudy.21 mph66%29.00 "HgN/A
6:50 AM43 °FThundershowers. Partly cloudy.13 mph76%29.00 "HgN/A
5:50 AM43 °FPassing clouds.17 mph71%29.00 "HgN/A
5:20 AM43 °FLight rain. Partly cloudy.20 mph76%29.00 "HgN/A
4:50 AM41 °FPassing clouds.7 mph81%29.00 "HgN/A
3:50 AM43 °FPassing clouds.10 mph76%28.97 "HgN/A
2:50 AM43 °FLight rain. Partly cloudy.16 mph87%28.97 "Hg5 mi
Weather by CustomWeather, © 2015

See weather overviewHow to use our weather pages